Regional Weather Roundup
Issued by NWS Cleveland, OH

Home | Current Version | Previous Version | Text Only | Print | Product List | Glossary Off
Versions: 1 2 3 4 5 6 7 8 9 10 11 12 13 14 15 16 17 18 19 20 21 22 23 24 25 26 27 28 29 30 31 32 33 34 35 36 37 38 39 40 41 42 43 44 45 46 47 48 49 50

000
ASUS41 KCLE 070310
RWRCLE
OHIO REGIONAL WEATHER ROUNDUP
NATIONAL WEATHER SERVICE WILMINGTON, OH
1000 PM EST TUE DEC 06 2016

NOTE: "FAIR" INDICATES FEW OR NO CLOUDS BELOW 12,000 FEET WITH NO
SIGNIFICANT WEATHER AND/OR OBSTRUCTIONS TO VISIBILITY.

OHZ001>008-015>018-024>027-034-035-043-044-070400-
   NORTHWEST OHIO

CITY           SKY/WX    TMP DP  RH WIND       PRES   REMARKS
DEFIANCE       FAIR      37  31  78 W10       29.88R
FINDLAY        MOCLDY    37  33  85 W15       29.86R FOG
TOLEDO EXPRESS CLOUDY    37  35  92 W10       29.83R
TOLEDO EXEC    MOCLDY    38  36  92 SW12      29.84R FOG
LIMA           CLOUDY    36  34  92 W18       29.88R
$$

OHZ009>014-019>023-028>033-038-089-070400-
   NORTHEAST OHIO

CITY           SKY/WX    TMP DP  RH WIND       PRES   REMARKS
CLE-HOPKINS    CLOUDY    39  35  86 W17G28    29.83R
CLE-LAKEFRONT  CLOUDY    40  37  89 W21G32    29.79R
CUY CO. ARPT   CLOUDY    41  41 100 W17G29    29.78R
LORAIN-ELYRIA  CLOUDY    36  33  89 W14G23    29.82R
ASHTABULA      CLOUDY    38  38 100 SW7       29.77R
AKRON-CANTON   CLOUDY    40  36  86 W18G25    29.79R FOG
WOOSTER        CLOUDY    35  33  92 W20G29    29.83R FOG     WCI  24
MANSFIELD      CLOUDY    35  35 100 W9        29.83R FOG     WCI  28
YOUNGSTOWN     DRIZZLE   39  38  96 S5        29.76R FOG
$$

OHZ042-051>053-060>062-070>072-077>081-070400-
  SOUTHWEST OHIO

CITY           SKY/WX    TMP DP  RH WIND       PRES   REMARKS
CINC-COVINGTON CLOUDY    37  32  82 W15       29.97R
CINC-LUNKEN    CLOUDY    39  33  79 NW7       30.00R
HAMILTON       CLOUDY    38  30  73 W10G18    29.98R
DAYTON         CLOUDY    35  31  85 W15G22    29.94R WCI  25
WRIGHT-PAT AFB CLOUDY    37  32  81 W13G21    29.94R
DAYTON GENERAL CLOUDY    37  31  78 W10G16    29.93R
WILMINGTON     CLOUDY    38  34  85 W14       29.93R
$$

OHZ036-037-039>041-045>050-054>059-063>069-073>076-082>088-070400-
  CENTRAL AND SOUTHEAST OHIO

CITY           SKY/WX    TMP DP  RH WIND       PRES   REMARKS
COLUMBUS       DRIZZLE   38  38 100 W9        29.89R FOG
OSU AIRPORT    CLOUDY    38  37  97 W7        29.88R FOG
BOLTON FIELD   CLOUDY    38  37  93 NW5       29.90R FOG
RICKENBACK AFB   N/A     38  37  96 W8        29.90R FOG
NEWARK         CLOUDY    38  34  85 NW12      29.88R
MARION         CLOUDY    37  35  92 W9        29.87R FOG
LANCASTER      CLOUDY    38  36  92 NW7       29.90R FOG
ZANESVILLE     CLOUDY    41  38  89 NW12G20   29.86R
NEW PHILLY     CLOUDY    42  40  92 W13G25    29.83R
$$




USA.gov is the U.S. government's official web portal to all federal, state and local government web resources and services.